Satellite: NOAA-17
Catalog number: 27453
Epoch time:      12152.86673554
Element set:     722
Inclination:      098.3376 deg
RA of node:       180.7292 deg
Eccentricity:    0.0011280
Arg of perigee:   199.8970 deg
Mean anomaly:     160.2259 deg
Mean motion:   14.24438479 rev/day
Decay rate:       2.25e-06 rev/day^2
Epoch rev:           51643
Checksum:              324

Satellite: NOAA-18
Catalog number: 28654
Epoch time:      12152.90553951
Element set:     198
Inclination:      099.0455 deg
RA of node:       110.8604 deg
Eccentricity:    0.0013833
Arg of perigee:   197.4644 deg
Mean anomaly:     162.6526 deg
Mean motion:   14.11656240 rev/day
Decay rate:       2.82e-06 rev/day^2
Epoch rev:           36226
Checksum:              304

Satellite: NOAA-19
Catalog number: 33591
Epoch time:      12152.90980568
Element set:     390
Inclination:      098.8638 deg
RA of node:       092.9022 deg
Eccentricity:    0.0015064
Arg of perigee:   068.0751 deg
Mean anomaly:     292.2489 deg
Mean motion:   14.11341429 rev/day
Decay rate:        6.6e-07 rev/day^2
Epoch rev:           17071
Checksum:              313

/EX
SB KEPS @ AMSAT  $ORB12152.M
Orbital Elements  12152.MISC

HR AMSAT ORBITAL ELEMENTS FOR MANNED AND MISCELLANEOUS SATELLITES
FROM WA5QGD FORT WORTH,TX May 31, 2012
Send SUBSCRIBE KEPS/UNSUBSCRIBE KEPS to majordomo@amsat.org only
BID: ORB12152.M
TO ALL RADIO AMATEURS BT

Satellite: HUBBLE
Catalog number: 20580
Epoch time:      12150.12705611
Element set:       7
Inclination:      028.4710 deg
RA of node:       268.2752 deg
Eccentricity:    0.0003169
Arg of perigee:   210.6462 deg
Mean anomaly:     149.3849 deg
Mean motion:   15.02512890 rev/day
Decay rate:      1.696e-05 rev/day^2
Epoch rev:            1186
Checksum:              265

Satellite: ISS
Catalog number: 25544
Epoch time:      12152.87461806
Element set:     668
Inclination:      051.6384 deg
RA of node:       203.9702 deg
Eccentricity:    0.0010241
Arg of perigee:   015.6124 deg
Mean anomaly:     317.7232 deg
Mean motion:   15.56032399 rev/day
Decay rate:      7.984e-05 rev/day^2
Epoch rev:           77546
Checksum:              301

Satellite: CO-58
Catalog number: 28895
Epoch time:      12152.57347966
Element set:     188
Inclination:      097.9179 deg
RA of node:       019.5753 deg
Eccentricity:    0.0017562
Arg of perigee:   199.0130 deg
Mean anomaly:     161.0451 deg
Mean motion:   14.60623631 rev/day
Decay rate:       4.31e-06 rev/day^2
Epoch rev:           35123
Checksum:              318

Satellite: FALCON
Catalog number: 30776
Epoch time:      12151.97009576
Element set:    0364
Inclination:      035.4322 deg
RA of node:       021.9930 deg
Eccentricity:    0.0002188
Arg of perigee:   267.7353 deg
Mean anomaly:     092.3105 deg
Mean motion:   15.07448537 rev/day
Decay rate:      3.318e-05 rev/day^2
Epoch rev:           28765
Checksum:              299

Satellite: MAST
Catalog number: 31126
Epoch time:      12152.57097832
Element set:     470
Inclination:      097.8743 deg
RA of node:       164.6446 deg
Eccentricity:    0.0093994
Arg of perigee:   161.7580 deg
Mean anomaly:     198.7028 deg
Mean motion:   14.54149000 rev/day
Decay rate:       3.73e-06 rev/day^2
Epoch rev:           27185
Checksum:              315

Satellite: CAPE1
Catalog number: 31130
Epoch time:      12151.69763757
Element set:     480
Inclination:      097.8848 deg
RA of node:       160.2139 deg
Eccentricity:    0.0101364
Arg of perigee:   177.5748 deg
Mean anomaly:     182.5927 deg
Mean motion:   14.52922381 rev/day
Decay rate:       1.11e-06 rev/day^2
Epoch rev:           27123
Checksum:              299

Satellite: COMPASS
Catalog number: 32787
Epoch time:      12151.67295968
Element set:    0318
Inclination:      097.8009 deg
RA of node:       213.3945 deg
Eccentricity:    0.0016345
Arg of perigee:   116.0294 deg
Mean anomaly:     244.2616 deg
Mean motion:   14.83946065 rev/day
Decay rate:      1.839e-05 rev/day^2
Epoch rev:           22121
Checksum:              311

Satellite: AAUSAT2
Catalog number: 32788
Epoch time:      12151.84862412
Element set:     306
Inclination:      097.8033 deg
RA of node:       213.9385 deg
Eccentricity:    0.0016304
Arg of perigee:   115.9801 deg
Mean anomaly:     244.3034 deg
Mean motion:   14.84259814 rev/day
Decay rate:      1.110e-05 rev/day^2
Epoch rev:           22126
Checksum:              274

Satellite: DO-64
Catalog number: 32789
Epoch time:      12151.71134102
Element set:     322
Inclination:      097.8130 deg
RA of node:       215.7592 deg
Eccentricity:    0.0015958
Arg of perigee:   113.7400 deg
Mean anomaly:     246.5479 deg
Mean motion:   14.85707327 rev/day
Decay rate:      2.277e-05 rev/day^2
Epoch rev:           22128
Checksum:              301

Satellite: CO-66
Catalog number: 32791
Epoch time:      12152.19535630
Element set:     306
Inclination:      097.8005 deg
RA of node:       213.6609 deg
Eccentricity:    0.0016749
Arg of perigee:   114.8526 deg
Mean anomaly:     245.4484 deg
Mean motion:   14.83372899 rev/day
Decay rate:      1.188e-05 rev/day^2
Epoch rev:           22122
Checksum:              317

